PGT2DK LTBJ-LTAU

Flight info

Callsign PGT2DK
Flight time 1h 4m
Altitude 39000
Route KULAR UT54 KFK UR32 HAY UT54 JUPNE UL614 MARTI W76 SARIZ
Aircraft A21N/M-SDE2E3FGHIRWXY/LB1

Departure

Time 2026-04-30 12:11
Airport Adnan Menderes International Airport (LTBJ)

Arrival

Time 2026-04-30 13:16
Airport Kayseri Erkilet International Airport (LTAU)
Time Latitude Longitude Altitude Speed Heading
2026-04-30 11:53 38.28990 27.15114 449 ft 0 kts 256°
2026-04-30 12:00 38.28992 27.15124 410 ft 2 kts 253°
2026-04-30 12:00 38.28997 27.15144 419 ft 2 kts 252°
2026-04-30 12:01 38.29003 27.15164 414 ft 2 kts 247°
2026-04-30 12:01 38.29010 27.15182 410 ft 2 kts 240°
2026-04-30 12:01 38.29019 27.15199 412 ft 2 kts 227°
2026-04-30 12:01 38.29032 27.15212 412 ft 2 kts 203°
2026-04-30 12:02 38.29048 27.15216 412 ft 2 kts 176°
2026-04-30 12:02 38.29057 27.15215 412 ft 1 kts 168°
2026-04-30 12:02 38.29058 27.15215 412 ft 0 kts 167°
2026-04-30 12:07 38.29038 27.15221 413 ft 7 kts 164°
2026-04-30 12:07 38.28998 27.15287 414 ft 13 kts 136°
2026-04-30 12:07 38.28892 27.15331 417 ft 20 kts 166°
2026-04-30 12:07 38.28747 27.15374 416 ft 22 kts 166°
2026-04-30 12:08 38.28598 27.15419 414 ft 22 kts 166°
2026-04-30 12:08 38.28446 27.15466 412 ft 23 kts 166°
2026-04-30 12:08 38.28291 27.15512 416 ft 23 kts 167°
2026-04-30 12:08 38.28135 27.15559 415 ft 23 kts 167°
2026-04-30 12:09 38.27976 27.15607 415 ft 24 kts 167°
2026-04-30 12:09 38.27815 27.15655 413 ft 23 kts 167°
2026-04-30 12:09 38.27760 27.15718 419 ft 10 kts 93°
2026-04-30 12:09 38.27775 27.15811 421 ft 12 kts 77°
2026-04-30 12:10 38.27809 27.15906 417 ft 11 kts 16°
2026-04-30 12:10 38.27892 27.15886 417 ft 20 kts 347°
2026-04-30 12:10 38.28077 27.15831 417 ft 61 kts 347°
2026-04-30 12:10 38.28703 27.15644 414 ft 125 kts 346°
2026-04-30 12:11 38.29741 27.15336 429 ft 174 kts 348°
2026-04-30 12:11 38.30917 27.14982 1030 ft 168 kts 346°
2026-04-30 12:11 38.32040 27.14600 1697 ft 169 kts 344°
2026-04-30 12:11 38.33219 27.14272 2201 ft 186 kts 346°
2026-04-30 12:12 38.34610 27.13915 2462 ft 219 kts 348°
2026-04-30 12:12 38.36201 27.13519 2811 ft 246 kts 348°
2026-04-30 12:12 38.37966 27.13229 3360 ft 264 kts
2026-04-30 12:12 38.39691 27.13975 4279 ft 268 kts 34°
2026-04-30 12:13 38.41025 27.15744 5013 ft 279 kts 54°
2026-04-30 12:13 38.42143 27.17749 5964 ft 282 kts 54°
2026-04-30 12:13 38.43267 27.19839 7010 ft 283 kts 54°
2026-04-30 12:13 38.44304 27.22003 7983 ft 288 kts 66°
2026-04-30 12:14 38.44938 27.24447 8991 ft 292 kts 76°
2026-04-30 12:14 38.45418 27.26979 9983 ft 296 kts 78°
2026-04-30 12:14 38.45886 27.29600 10572 ft 314 kts 77°
2026-04-30 12:14 38.46391 27.32420 10951 ft 338 kts 77°
2026-04-30 12:15 38.46900 27.35438 11412 ft 356 kts 80°
2026-04-30 12:15 38.47281 27.38609 12125 ft 366 kts 82°
2026-04-30 12:15 38.47625 27.41862 12911 ft 373 kts 82°
2026-04-30 12:15 38.47970 27.45182 13719 ft 380 kts 82°
2026-04-30 12:16 38.48321 27.48551 14434 ft 386 kts 82°
2026-04-30 12:16 38.48706 27.51964 15222 ft 389 kts 80°
2026-04-30 12:16 38.49169 27.55396 15922 ft 396 kts 79°
2026-04-30 12:16 38.49659 27.58878 16650 ft 401 kts 79°
2026-04-30 12:17 38.50659 27.65982 18080 ft 411 kts 79°
2026-04-30 12:17 38.51164 27.69595 18723 ft 416 kts 79°
2026-04-30 12:17 38.51672 27.73245 19351 ft 420 kts 79°
2026-04-30 12:18 38.52184 27.76929 19972 ft 423 kts 79°
2026-04-30 12:18 38.52698 27.80647 20605 ft 427 kts 79°
2026-04-30 12:18 38.53216 27.84401 21193 ft 431 kts 79°
2026-04-30 12:18 38.53738 27.88193 21800 ft 435 kts 79°
2026-04-30 12:19 38.54269 27.92065 22417 ft 438 kts 79°
2026-04-30 12:19 38.54796 27.95914 23013 ft 442 kts 79°
2026-04-30 12:19 38.55327 27.99800 23590 ft 445 kts 79°
2026-04-30 12:19 38.55859 28.03711 24059 ft 449 kts 79°
2026-04-30 12:20 38.56395 28.07656 24513 ft 452 kts 79°
2026-04-30 12:20 38.56932 28.11620 24989 ft 454 kts 79°
2026-04-30 12:20 38.57471 28.15606 25434 ft 457 kts 79°
2026-04-30 12:20 38.58011 28.19615 25862 ft 460 kts 79°
2026-04-30 12:21 38.58503 28.23673 26280 ft 463 kts 83°
2026-04-30 12:21 38.58661 28.27797 26691 ft 466 kts 89°
2026-04-30 12:21 38.58642 28.31955 27103 ft 469 kts 90°
2026-04-30 12:21 38.58589 28.36135 27506 ft 472 kts 90°
2026-04-30 12:22 38.58532 28.40346 27858 ft 476 kts 91°
2026-04-30 12:22 38.58475 28.44591 28234 ft 478 kts 91°
2026-04-30 12:22 38.58419 28.48849 28596 ft 481 kts 91°
2026-04-30 12:22 38.58363 28.53131 28953 ft 483 kts 90°
2026-04-30 12:23 38.58305 28.57449 29319 ft 485 kts 90°
2026-04-30 12:23 38.58270 28.61751 29795 ft 484 kts 88°
2026-04-30 12:23 38.58495 28.66041 30247 ft 483 kts 84°
2026-04-30 12:23 38.58859 28.70303 30626 ft 482 kts 82°
2026-04-30 12:24 38.59288 28.74546 30983 ft 482 kts 81°
2026-04-30 12:24 38.59743 28.78789 31334 ft 482 kts 81°
2026-04-30 12:24 38.60202 28.83031 31679 ft 482 kts 81°
2026-04-30 12:24 38.60654 28.87275 32038 ft 481 kts 81°
2026-04-30 12:25 38.61097 28.91512 32373 ft 481 kts 82°
2026-04-30 12:25 38.61526 28.95703 32713 ft 481 kts 82°
2026-04-30 12:25 38.61953 28.99941 33101 ft 479 kts 82°
2026-04-30 12:25 38.62375 29.04172 33378 ft 480 kts 82°
2026-04-30 12:26 38.62796 29.08412 33658 ft 481 kts 82°
2026-04-30 12:26 38.63215 29.12664 33976 ft 480 kts 82°
2026-04-30 12:26 38.63633 29.16907 34238 ft 480 kts 82°
2026-04-30 12:26 38.64049 29.21135 34492 ft 480 kts 82°
2026-04-30 12:27 38.64464 29.25379 34725 ft 480 kts 82°
2026-04-30 12:27 38.64877 29.29608 35018 ft 479 kts 82°
2026-04-30 12:27 38.65290 29.33848 35263 ft 479 kts 82°
2026-04-30 12:27 38.65697 29.38054 35472 ft 479 kts 82°
2026-04-30 12:28 38.66107 29.42295 35683 ft 479 kts 82°
2026-04-30 12:28 38.66518 29.46532 35887 ft 479 kts 81°
2026-04-30 12:28 38.66987 29.50752 36091 ft 479 kts 80°
2026-04-30 12:28 38.67510 29.54966 36351 ft 479 kts 79°
2026-04-30 12:29 38.68058 29.59170 36543 ft 479 kts 79°
2026-04-30 12:29 38.68612 29.63380 36718 ft 479 kts 79°
2026-04-30 12:29 38.69162 29.67581 36916 ft 479 kts 79°
2026-04-30 12:29 38.69706 29.71790 37094 ft 479 kts 79°
2026-04-30 12:30 38.70241 29.75989 37243 ft 479 kts 79°
2026-04-30 12:30 38.70775 29.80217 37422 ft 479 kts 79°
2026-04-30 12:30 38.71304 29.84436 37584 ft 479 kts 80°
2026-04-30 12:30 38.71822 29.88592 37773 ft 479 kts 80°
2026-04-30 12:31 38.72345 29.92795 37933 ft 479 kts 80°
2026-04-30 12:31 38.72867 29.97010 38080 ft 479 kts 80°
2026-04-30 12:31 38.73393 30.01219 38236 ft 479 kts 79°
2026-04-30 12:31 38.73948 30.05477 38390 ft 478 kts 79°
2026-04-30 12:32 38.74500 30.09625 38545 ft 478 kts 79°
2026-04-30 12:32 38.75071 30.13882 38657 ft 478 kts 79°
2026-04-30 12:32 38.75640 30.18132 38781 ft 478 kts 79°
2026-04-30 12:32 38.76200 30.22340 38877 ft 478 kts 79°
2026-04-30 12:33 38.77316 30.30794 39012 ft 480 kts 79°
2026-04-30 12:33 38.78413 30.39190 39018 ft 479 kts 79°
2026-04-30 12:34 38.79500 30.47555 39018 ft 479 kts 79°
2026-04-30 12:34 38.80999 30.55958 39019 ft 475 kts 68°
2026-04-30 12:35 38.83425 30.63846 39016 ft 475 kts 65°
2026-04-30 12:35 38.86026 30.71644 39015 ft 475 kts 64°
2026-04-30 12:36 38.88648 30.79433 39014 ft 475 kts 64°
2026-04-30 12:36 38.91250 30.87240 39021 ft 475 kts 65°
2026-04-30 12:37 38.93816 30.95004 39016 ft 476 kts 65°
2026-04-30 12:37 38.96394 31.02834 39013 ft 475 kts 65°
2026-04-30 12:38 38.98980 31.10713 39015 ft 475 kts 65°
2026-04-30 12:38 39.01113 31.17228 39029 ft 475 kts 65°
2026-04-30 12:39 39.03677 31.25074 39006 ft 476 kts 65°
2026-04-30 12:39 39.06241 31.32943 39018 ft 477 kts 65°
2026-04-30 12:40 39.08787 31.40781 39015 ft 477 kts 65°
2026-04-30 12:40 39.11359 31.48720 39038 ft 477 kts 65°
2026-04-30 12:41 39.13910 31.56615 39017 ft 477 kts 66°
2026-04-30 12:41 39.16454 31.64512 39017 ft 477 kts 66°
2026-04-30 12:42 39.18991 31.72408 39018 ft 477 kts 66°
2026-04-30 12:42 39.21522 31.80307 39034 ft 477 kts 66°
2026-04-30 12:43 39.24054 31.88240 39026 ft 477 kts 66°
2026-04-30 12:43 39.26576 31.96171 39026 ft 478 kts 66°
2026-04-30 12:44 39.29094 32.04112 39025 ft 478 kts 66°
2026-04-30 12:44 39.31602 32.12045 39034 ft 478 kts 66°
2026-04-30 12:45 39.34118 32.20023 39031 ft 478 kts 66°
2026-04-30 12:45 39.36618 32.27974 39031 ft 478 kts 66°
2026-04-30 12:46 39.39115 32.35943 39031 ft 478 kts 67°
2026-04-30 12:46 39.41567 32.43949 39052 ft 479 kts 67°
2026-04-30 12:47 39.43657 32.52125 39043 ft 480 kts 79°
2026-04-30 12:47 39.44548 32.60663 39036 ft 479 kts 91°
2026-04-30 12:48 39.43981 32.69236 39042 ft 478 kts 100°
2026-04-30 12:48 39.42837 32.77729 39044 ft 478 kts 102°
2026-04-30 12:49 39.41612 32.86176 39040 ft 478 kts 102°
2026-04-30 12:49 39.40416 32.94687 39032 ft 478 kts 102°
2026-04-30 12:50 39.39238 33.03138 39034 ft 477 kts 102°
2026-04-30 12:50 39.38058 33.11596 39046 ft 478 kts 102°
2026-04-30 12:51 39.36873 33.20054 39030 ft 478 kts 102°
2026-04-30 12:51 39.35682 33.28507 39031 ft 477 kts 102°
2026-04-30 12:52 39.34486 33.36954 39026 ft 477 kts 102°
2026-04-30 12:52 39.33286 33.45387 39031 ft 477 kts 102°
2026-04-30 12:53 39.32070 33.53877 39037 ft 477 kts 102°
2026-04-30 12:53 39.30857 33.62308 39037 ft 477 kts 102°
2026-04-30 12:54 39.29645 33.70685 39030 ft 477 kts 103°
2026-04-30 12:54 39.28414 33.79152 39034 ft 477 kts 103°
2026-04-30 12:55 39.27184 33.87565 39040 ft 477 kts 103°
2026-04-30 12:55 39.25948 33.95970 39033 ft 477 kts 103°
2026-04-30 12:56 39.24707 34.04373 38925 ft 476 kts 103°
2026-04-30 12:56 39.24083 34.08576 38708 ft 475 kts 103°
2026-04-30 12:56 39.23462 34.12755 38458 ft 475 kts 103°
2026-04-30 12:57 39.22839 34.16932 37529 ft 480 kts 103°
2026-04-30 12:57 39.22194 34.21242 36539 ft 485 kts 103°
2026-04-30 12:57 39.21551 34.25531 35671 ft 488 kts 103°
2026-04-30 12:57 39.20904 34.29831 34883 ft 490 kts 103°
2026-04-30 12:58 39.20254 34.34145 34099 ft 491 kts 102°
2026-04-30 12:58 39.19601 34.38473 33220 ft 492 kts 102°
2026-04-30 12:58 39.18943 34.42814 32346 ft 492 kts 102°
2026-04-30 12:58 39.18276 34.47208 31456 ft 492 kts 102°
2026-04-30 12:59 39.17619 34.51525 30458 ft 487 kts 102°
2026-04-30 12:59 39.16971 34.55775 29609 ft 477 kts 102°
2026-04-30 12:59 39.16342 34.59888 29010 ft 469 kts 102°
2026-04-30 12:59 39.15714 34.63984 28399 ft 463 kts 102°
2026-04-30 13:00 39.15091 34.68035 27793 ft 458 kts 102°
2026-04-30 13:00 39.14474 34.72035 27187 ft 452 kts 102°
2026-04-30 13:00 39.13863 34.75984 26588 ft 448 kts 102°
2026-04-30 13:00 39.13256 34.79905 25983 ft 444 kts 102°
2026-04-30 13:01 39.12652 34.83794 25377 ft 440 kts 102°
2026-04-30 13:01 39.12052 34.87643 24782 ft 437 kts 102°
2026-04-30 13:01 39.11454 34.91476 24167 ft 435 kts 102°
2026-04-30 13:01 39.10859 34.95281 23551 ft 432 kts 102°
2026-04-30 13:02 39.10267 34.99061 22869 ft 429 kts 102°
2026-04-30 13:02 39.09680 35.02805 22266 ft 424 kts 102°
2026-04-30 13:02 39.09099 35.06498 21675 ft 419 kts 102°
2026-04-30 13:02 39.08522 35.10154 21070 ft 414 kts 102°
2026-04-30 13:03 39.07950 35.13775 20472 ft 410 kts 103°
2026-04-30 13:03 39.07375 35.17407 19869 ft 407 kts 103°
2026-04-30 13:03 39.06812 35.20955 19282 ft 403 kts 103°
2026-04-30 13:03 39.06253 35.24468 18703 ft 399 kts 103°
2026-04-30 13:04 39.05885 35.26777 18313 ft 397 kts 103°
2026-04-30 13:04 39.05324 35.30293 17675 ft 393 kts 103°
2026-04-30 13:04 39.04777 35.33715 17102 ft 387 kts 103°
2026-04-30 13:04 39.04223 35.37083 16530 ft 382 kts 105°
2026-04-30 13:05 39.03523 35.40336 16069 ft 373 kts 108°
2026-04-30 13:05 39.02770 35.43503 15574 ft 369 kts 109°
2026-04-30 13:05 39.02009 35.46647 15027 ft 366 kts 109°
2026-04-30 13:06 39.00507 35.52845 13948 ft 360 kts 109°
2026-04-30 13:06 38.99767 35.55900 13371 ft 356 kts 109°
2026-04-30 13:06 38.99035 35.58923 12849 ft 352 kts 109°
2026-04-30 13:06 38.98309 35.61919 12326 ft 349 kts 109°
2026-04-30 13:07 38.97591 35.64877 11817 ft 346 kts 109°
2026-04-30 13:07 38.96875 35.67823 11302 ft 344 kts 109°
2026-04-30 13:07 38.96164 35.70747 10794 ft 341 kts 109°
2026-04-30 13:07 38.95469 35.73606 10590 ft 327 kts 109°
2026-04-30 13:08 38.94808 35.76320 10496 ft 310 kts 108°
2026-04-30 13:08 38.94180 35.78891 10356 ft 296 kts 109°
2026-04-30 13:08 38.93561 35.81422 9857 ft 298 kts 109°
2026-04-30 13:08 38.92777 35.83879 9336 ft 296 kts 123°
2026-04-30 13:09 38.91415 35.85779 8947 ft 286 kts 148°
2026-04-30 13:09 38.89631 35.86800 8659 ft 281 kts 166°
2026-04-30 13:09 38.87709 35.87251 8591 ft 282 kts 181°
2026-04-30 13:09 38.85800 35.86799 8596 ft 278 kts 206°
2026-04-30 13:10 38.84262 35.85357 8586 ft 275 kts 231°
2026-04-30 13:10 38.83349 35.83229 8547 ft 274 kts 252°
2026-04-30 13:10 38.82884 35.80852 8248 ft 275 kts 258°
2026-04-30 13:10 38.82514 35.78489 7825 ft 265 kts 258°
2026-04-30 13:11 38.82107 35.76242 7373 ft 252 kts 256°
2026-04-30 13:11 38.81695 35.74114 7008 ft 241 kts 256°
2026-04-30 13:11 38.81306 35.72082 6697 ft 229 kts 256°
2026-04-30 13:11 38.80946 35.70182 6454 ft 211 kts 257°
2026-04-30 13:12 38.80608 35.68391 6179 ft 204 kts 257°
2026-04-30 13:12 38.80276 35.66621 5907 ft 202 kts 256°
2026-04-30 13:12 38.79958 35.64946 5652 ft 186 kts 256°
2026-04-30 13:13 38.79396 35.61990 5173 ft 157 kts 257°
2026-04-30 13:13 38.79145 35.60660 5006 ft 152 kts 257°
2026-04-30 13:13 38.78652 35.58050 4580 ft 152 kts 257°
2026-04-30 13:14 38.78412 35.56787 4353 ft 139 kts 257°
2026-04-30 13:14 38.78187 35.55600 4193 ft 136 kts 257°
2026-04-30 13:14 38.77749 35.53250 3824 ft 137 kts 256°
2026-04-30 13:15 38.77519 35.52050 3655 ft 137 kts 258°
2026-04-30 13:15 38.77124 35.49946 3465 ft 77 kts 256°
2026-04-30 13:15 38.77022 35.49418 3472 ft 54 kts 256°
2026-04-30 13:16 38.76936 35.48973 3470 ft 43 kts 256°
2026-04-30 13:16 38.76882 35.48693 3470 ft 18 kts 256°
2026-04-30 13:16 38.76841 35.48621 3471 ft 8 kts 187°
2026-04-30 13:17 38.76801 35.48629 3471 ft 5 kts 168°
2026-04-30 13:17 38.76749 35.48636 3471 ft 9 kts 199°
2026-04-30 13:17 38.76654 35.48639 3471 ft 0 kts 166°